x

Naubinway, Mi (nabm4) Weather Station

4:41pm - Tue 27th Jan 2015 All times are CST. -6 hours from GMT.

  • Wind
  • Air Temp 12°f
  • Sea Pressure 1023mb
  • Naubinway, Mi
  • Naubinway, Mi

More Historic Weather Station data

Upgrade to MSW Pro to gain access to the past 30 days of data for over 8000 Wavebouys and Weather Stations around the globe.

Join Pro

Comparision Forecast

View Surf forecast
   
Tue 01/27 4:41pm  -  3 mph 1023mb 12f
4:40pm  -  1 mph 1023mb 12f
4:30pm  -  3 mph 1023.4mb 14f
4:20pm 3
mph
1023.4mb 16f
4:10pm 2 3 mph 1023.4mb 19f
4:00pm 3
mph
1023.4mb 18f
3:40pm 2 3 mph 1023.4mb 19f
3:30pm 2 3 mph 1023mb 19f
3:20pm 3 5 mph 1023mb 19f
3:10pm 3 6 mph 1023mb 18f
3:00pm 6 7 mph 1023mb 18f
2:40pm 7
mph
1023mb 18f
2:30pm 7
mph
1022.7mb 17f
2:20pm 6 7 mph 1022.7mb 17f
2:10pm 6 7 mph 1022.7mb 17f
2:00pm 7
mph
1022.7mb 17f
1:40pm 5 6 mph 1023mb 17f
1:30pm 6 7 mph 1023mb 17f
1:20pm 5 6 mph 1023mb 17f
1:10pm 5 6 mph 1023mb 17f
1:00pm 3 5 mph 1023mb 18f
12:40pm 5 6 mph 1022.7mb 17f
12:30pm 5
mph
1022.7mb 17f
12:22pm 5 7 mph 1022.7mb 17f
12:20pm 5
mph
1022.7mb 17f
12:10pm 5 7 mph 1023mb 16f
12:00pm 5 7 mph 1023mb 16f
11:40am 6
mph
1023mb 16f
11:30am 6
mph
1023mb 16f
11:21am 5 7 mph 1023mb 16f
11:20am 5 6 mph 1023mb 16f
11:10am 3 5 mph 1023mb 15f
11:00am 5
mph
1023.4mb 15f
10:40am 6 7 mph 1023.4mb 15f
10:30am 5 6 mph 1023.4mb 15f
10:21am 3 7 mph 1023.4mb 16f
10:20am 3
mph
1023.4mb 16f
10:10am 2 5 mph 1023.4mb 17f
10:00am 5
mph
1023.4mb 19f
9:40am 3 6 mph 1023mb 16f
9:30am 6 7 mph 1023mb 14f
9:21am 7 8 mph 1023mb 13f
9:20am 7
mph
1023mb 13f
9:10am 5 6 mph 1022.7mb 11f
9:00am 5 6 mph 1022.7mb 10f
8:40am 6 7 mph 1022.4mb 8f
8:30am 7 8 mph 1022.4mb 7f
8:20am 8
mph
1022.4mb 6f
8:10am 6 8 mph 1022mb 6f
8:00am 7
mph
1022mb 5f
7:40am 6 7 mph 1022mb 4f
7:30am 6
mph
1022mb 4f
7:20am 5 6 mph 1021.7mb 4f
7:10am 5 6 mph 1021.7mb 4f
7:00am 5 6 mph 1021.3mb 3f
6:40am 3 5 mph 1021mb 3f
6:30am 3 5 mph 1021mb 2f
6:20am 5
mph
1021mb 4f
6:19am 3 6 mph 1021mb 4f
6:10am 3 5 mph 1021mb 4f
6:00am 3
mph
1020.7mb 6f
5:40am 5 6 mph 1020.3mb 6f
5:30am 5 6 mph 1020mb 6f
5:20am 5 6 mph 1020mb 6f
5:19am 5 8 mph 1020mb 6f
5:10am 5 7 mph 1020mb 6f
5:00am 7
mph
1019.6mb 6f
4:40am 6
mph
1019.3mb 7f
4:30am 6
mph
1019.3mb 7f
4:20am 6 7 mph 1019.3mb 7f
4:19am 6 9 mph 1019.3mb 7f
4:10am 7 8 mph 1019.3mb 7f
4:00am 6 8 mph 1019.3mb 8f
3:40am 7
mph
1019mb 8f
3:30am 6 7 mph 1019mb 9f
3:20am 7 8 mph 1018.6mb 9f
3:18am 7 9 mph 1018.6mb 9f
3:10am 6 8 mph 1019mb 10f
3:00am 7 8 mph 1018.6mb 10f
2:40am 7 8 mph 1018.6mb 10f
2:30am 7 8 mph 1018.3mb 11f
2:20am 8 9 mph 1018.3mb 11f
2:18am 8 13 mph 1018.3mb 11f
2:10am 8 10 mph 1018.3mb 12f
2:00am 8 10 mph 1018.3mb 12f
1:40am 9 13 mph 1018.3mb 13f
1:30am 9 10 mph 1017.9mb 13f
1:20am 10 11 mph 1017.9mb 14f
1:17am 9 13 mph 1017.9mb 14f
1:10am 10 13 mph 1017.9mb 14f
1:00am 9 11 mph 1017.9mb 14f
12:40am 10 11 mph 1017.6mb 14f
12:30am 9 11 mph 1017.6mb 14f
12:20am 9 11 mph 1017.6mb 14f
12:17am 9 14 mph 1017.6mb 14f
12:10am 9 10 mph 1017.6mb 14f
12:00am 10
mph
1017.6mb 14f
Mon 01/26 11:40pm 9 11 mph 1017.6mb 14f
11:30pm 10 14 mph 1017.6mb 15f
11:20pm 10 14 mph 1017.3mb 15f
11:17pm 11 14 mph 1017.3mb 15f
11:10pm 10 13 mph 1017.3mb 15f
11:00pm 9 13 mph 1016.9mb 15f
10:40pm 8 10 mph 1016.9mb 15f
10:30pm 8 10 mph 1016.9mb 15f
10:20pm 10 11 mph 1016.6mb 15f
10:16pm 9 11 mph 1016.6mb 15f
10:10pm 10 11 mph 1016.6mb 15f
10:00pm 9 11 mph 1016.3mb 15f
9:40pm 8 11 mph 1016.3mb 15f
9:30pm 9 10 mph 1016.3mb 15f
9:20pm 8 10 mph 1016.3mb 15f
9:16pm 8 11 mph 1016.3mb 15f
9:10pm 9 10 mph 1016.3mb 15f
9:00pm 9 10 mph 1016.3mb 15f
8:40pm 9 11 mph 1015.6mb 15f
8:30pm 10 11 mph 1015.6mb 15f
8:20pm 10 13 mph 1015.6mb 15f
8:15pm 11 15 mph 1015.2mb 15f
8:10pm 10 14 mph 1015.6mb 15f
8:00pm 11 14 mph 1015.6mb 16f
7:40pm 13 15 mph 1015.6mb 16f
7:30pm 13 14 mph 1015.6mb 16f
7:20pm 13 15 mph 1015.6mb 17f
7:15pm 11 16 mph 1015.6mb 17f
7:10pm 11 15 mph 1015.6mb 17f
7:00pm 13 14 mph 1015.2mb 17f
6:40pm 11 15 mph 1015.2mb 18f
6:30pm 11 14 mph 1014.9mb 18f
6:20pm 11 16 mph 1014.9mb 18f
6:15pm 13 17 mph 1014.9mb 19f
6:10pm 11 16 mph 1014.9mb 19f
6:00pm 13 15 mph 1014.6mb 19f
5:40pm 11 17 mph 1014.2mb 19f
5:30pm 15 16 mph 1013.9mb 19f
5:20pm 14 17 mph 1013.9mb 19f
5:14pm 14 18 mph 1013.5mb 19f
5:10pm 15 18 mph 1013.5mb 19f
5:00pm 15 17 mph 1013.5mb 19f
4:50pm 16 17 mph 1013.5mb 19f
4:40pm 15 17 mph 1013.5mb 19f
4:30pm 13 15 mph 1013.2mb 19f
4:20pm 11 13 mph 1013.5mb 19f
4:14pm 11 13 mph 1013.5mb 19f
4:10pm 11 13 mph 1013.5mb 19f
4:00pm 8 9 mph 1013.9mb 19f
3:50pm 7 8 mph 1013.5mb 19f
3:40pm 7 8 mph 1013.9mb 19f
3:30pm 6 8 mph 1013.9mb 19f
3:20pm 7 8 mph 1013.5mb 20f
3:13pm 7 15 mph 1013.5mb 20f
3:10pm 7 8 mph 1013.5mb 20f
3:00pm 8 10 mph 1013.2mb 20f
2:50pm 9 11 mph 1013.2mb 20f
2:40pm 11 13 mph 1012.9mb 19f
2:30pm 10 14 mph 1013.2mb 19f
2:20pm 13 15 mph 1013.2mb 19f
2:13pm 10 15 mph 1013.2mb 18f
2:10pm 10 14 mph 1013.2mb 18f
2:00pm 11 15 mph 1013.2mb 18f
1:50pm 13 15 mph 1013.2mb 18f
1:40pm 13 15 mph 1013.2mb 18f
1:30pm 13 14 mph 1013.2mb 18f
1:20pm 13 15 mph 1013.2mb 17f
1:12pm 14 15 mph 1013.2mb 17f
1:10pm 11 15 mph 1013.2mb 17f
1:00pm 11 15 mph 1013.2mb 17f
12:50pm 13 15 mph 1013.5mb 16f
12:40pm 11 15 mph 1013.5mb 15f
12:30pm 11 14 mph 1013.5mb 15f
12:20pm 11 13 mph 1013.5mb 16f
12:12pm 9 16 mph 1013.9mb 15f
12:10pm 9 13 mph 1013.5mb 15f
12:00pm 10 14 mph 1013.9mb 15f
11:50am 13 15 mph 1013.9mb 14f
11:40am 13 15 mph 1013.9mb 14f
11:30am 13 16 mph 1013.9mb 14f
11:20am 13 16 mph 1013.9mb 13f
11:12am 14 17 mph 1013.9mb 13f
11:10am 13 16 mph 1013.9mb 13f
11:00am 14 16 mph 1013.9mb 12f
10:50am 13 17 mph 1014.2mb 12f
10:40am 14 17 mph 1014.2mb 12f
10:30am 13 15 mph 1014.2mb 11f
10:20am 14 15 mph 1014.2mb 10f
10:11am 13 17 mph 1014.6mb 10f
10:10am 13 15 mph 1014.6mb 10f
10:00am 14 17 mph 1014.2mb 10f
9:50am 11 15 mph 1014.2mb 10f
9:40am 11 13 mph 1014.2mb 10f
9:30am 11 14 mph 1014.2mb 9f
9:20am 11 14 mph 1013.9mb 9f
9:11am 13 15 mph 1013.9mb 9f
9:10am 13 15 mph 1014.2mb 9f
9:00am 13 15 mph 1014.2mb 9f
8:50am 13 15 mph 1014.2mb 9f
8:40am 11 13 mph 1014.2mb 9f
8:30am 11 13 mph 1014.2mb 9f
8:20am 11 14 mph 1014.6mb 7f
8:10am 13 14 mph 1014.2mb 6f
8:00am 11 13 mph 1014.2mb 6f
7:50am 11 15 mph 1014.2mb 6f
7:40am 13 14 mph 1014.2mb 6f
7:30am 10 11 mph 1014.2mb 4f
7:20am 7 8 mph 1014.2mb 3f
7:10am 6 10 mph 1014.6mb 3f
7:00am 7 9 mph 1014.6mb 3f
6:50am 8 9 mph 1014.6mb 4f
6:40am 8 9 mph 1014.9mb 5f
6:30am 8 10 mph 1014.9mb 5f
6:20am 6 7 mph 1014.9mb 4f
6:10am 6 7 mph 1014.9mb 3f
6:00am 3 5 mph 1014.9mb 2f
5:50am 2 5 mph 1014.9mb 2f
5:40am 3 5 mph 1014.9mb 2f
5:30am 2 3 mph 1014.9mb 2f
5:20am 2 3 mph 1014.9mb 2f
5:10am 1 3 mph 1014.9mb 2f
5:09am 2 6 mph 1014.9mb 2f
5:00am 2 5 mph 1014.9mb 2f
4:50am 2 5 mph 1014.9mb 2f
4:40am 2 6 mph 1014.9mb 3f
4:30am 2 5 mph 1015.2mb 3f
4:20am 2 3 mph 1014.9mb 2f
4:10am 2 5 mph 1014.9mb 2f
4:09am 2 7 mph 1014.9mb 1f
4:00am 2 5 mph 1014.9mb 1f
3:50am 3 5 mph 1014.9mb 1f
3:40am 3 5 mph 1014.9mb 1f
3:30am 3 5 mph 1015.2mb -
3:20am 5 7 mph 1015.2mb -
3:10am 3 6 mph 1015.2mb -1f
3:08am 3 6 mph 1015.2mb -2f
3:00am 5 6 mph 1015.2mb -2f
2:50am 5
mph
1015.6mb -3f
2:40am 5
mph
1015.6mb -6f
2:30am 3
mph
1015.6mb -7f
2:20am 2 5 mph 1015.6mb -7f
2:10am 3
mph
1015.9mb -8f
2:08am 3
mph
1015.9mb -8f
2:00am  -  2 mph 1015.9mb -7f
1:50am  -  1 mph 1016.3mb -7f
1:40am  -  1 mph 1016.3mb -6f
1:30am  -  1 mph 1016.3mb -5f
1:20am  -  mph 1016.3mb -2f
1:10am  -  1 mph 1016.3mb -1f
1:08am  -  2 mph 1016.3mb -4f
1:00am  -  2 mph 1016.3mb -4f
12:50am  -  1 mph 1016.3mb -7f
12:40am  -  2 mph 1016.3mb -5f
12:30am 2
mph
1016.3mb -2f
12:20am 2
mph
1016.6mb 1f
12:10am 2 5 mph 1016.6mb -1f
12:07am 3 5 mph 1016.6mb -2f
12:00am 5
mph
1016.6mb -2f
Sun 01/25 11:50pm 5
mph
1016.6mb -1f
11:40pm 5
mph
1016.9mb -1f
11:30pm 3
mph
1016.6mb -
11:20pm 3 5 mph 1016.9mb -1f
11:10pm 2 3 mph 1016.9mb -3f
11:07pm 3 6 mph 1016.6mb -4f
11:00pm 3 6 mph 1016.6mb -5f
10:50pm 3 5 mph 1016.6mb -6f
10:40pm 2 3 mph 1016.9mb -6f
10:30pm 2
mph
1017.3mb -6f
10:20pm 2 3 mph 1017.3mb -3f
10:10pm 3
mph
1017.6mb -2f
10:06pm 2 3 mph 1017.6mb -3f
10:00pm 2 3 mph 1017.6mb -4f
9:50pm 3
mph
1017.6mb -4f
9:40pm 3
mph
1017.9mb -5f
9:30pm 2
mph
1017.9mb -5f
9:20pm 2 3 mph 1018.3mb -4f
9:10pm 2 3 mph 1018.6mb -1f
9:06pm 1 5 mph 1018.6mb -
9:00pm 2
mph
1018.6mb -
8:50pm 2 3 mph 1018.6mb 2f
8:40pm 2 3 mph 1018.6mb 2f
8:30pm 3
mph
1019mb 1f
8:20pm 5
mph
1018.6mb 2f
8:10pm 3
mph
1019mb 2f
8:06pm 3 5 mph 1019mb 3f
8:00pm 3
mph
1019mb 3f
7:50pm 3
mph
1019mb 3f
7:40pm 3
mph
1019mb 4f
7:30pm 2 5 mph 1018.6mb 3f
7:20pm 5
mph
1018.6mb 3f
7:10pm 5
mph
1018.6mb 3f
7:00pm 5 6 mph 1018.6mb 3f
6:50pm 5
mph
1018.6mb 4f
6:40pm 5
mph
1018.3mb 4f
6:30pm 5 6 mph 1018.3mb 4f
6:20pm 6 7 mph 1018.3mb 5f
6:10pm 6 7 mph 1017.9mb 4f
6:05pm 5 6 mph 1017.9mb 4f
6:00pm 3 5 mph 1017.9mb 4f
5:50pm 5
mph
1017.9mb 2f
5:40pm 3 6 mph 1017.6mb 3f
5:30pm 3 5 mph 1017.6mb 4f
5:20pm 3 5 mph 1017.6mb 7f
5:10pm 2 3 mph 1017.6mb 6f
5:04pm 3
mph
1017.6mb 8f
5:00pm 3
mph
1017.6mb 8f
4:50pm  -  3 mph 1017.6mb 8f
4:40pm 2 3 mph 1017.6mb 9f
4:30pm 1 2 mph 1017.6mb 10f
4:20pm  -  3 mph 1017.6mb 11f
4:10pm 3
mph
1017.3mb 13f
4:04pm 2 5 mph 1017.6mb 14f
4:00pm 2
mph
1017.3mb 14f
3:50pm 1 2 mph 1017.6mb 15f
3:40pm 1 3 mph 1017.3mb 14f
3:30pm 3
mph
1017.3mb 13f
3:20pm 3
mph
1017.3mb 14f
3:10pm 2 5 mph 1017.6mb 14f
3:04pm 2 6 mph 1017.6mb 12f
3:00pm 3 5 mph 1017.6mb 12f
2:50pm 3 5 mph 1017.6mb 13f
2:40pm 3 6 mph 1017.6mb 13f
2:30pm 1 5 mph 1017.6mb 15f
2:20pm 3
mph
1017.6mb 14f
2:10pm 2 5 mph 1017.6mb 15f
2:03pm 5 7 mph 1017.6mb 14f
2:00pm 3 5 mph 1017.6mb 14f
1:50pm 2 5 mph 1017.6mb 15f
1:40pm 5
mph
1017.6mb 14f
1:30pm 3 5 mph 1017.6mb 14f
1:20pm 5 6 mph 1017.9mb 13f
1:10pm 5 7 mph 1017.6mb 12f
1:03pm 6 7 mph 1017.6mb 13f
1:00pm 3 5 mph 1017.9mb 13f
12:50pm 3 5 mph 1017.9mb 13f
12:40pm 5 6 mph 1017.6mb 12f
12:30pm 6 7 mph 1017.9mb 11f
12:20pm 6 7 mph 1017.6mb 11f
12:10pm 5 6 mph 1017.9mb 11f
12:02pm 5 11 mph 1017.9mb 11f
12:00pm 5 7 mph 1017.9mb 11f
11:50am 6 8 mph 1017.6mb 10f
11:40am 7 8 mph 1017.6mb 10f
11:30am 8 10 mph 1017.6mb 9f
11:20am 9 10 mph 1017.6mb 9f
11:10am 9 11 mph 1017.3mb 9f
11:02am 8 11 mph 1017.3mb 9f
11:00am 8 9 mph 1017.3mb 9f
10:50am 8 11 mph 1017.3mb 9f
10:40am 3 8 mph 1017.3mb 12f
10:30am 5 6 mph 1017.3mb 14f
10:20am 6 10 mph 1016.9mb 11f
10:10am 8 10 mph 1016.9mb 13f
10:02am 3 11 mph 1016.9mb 11f
10:00am 3 6 mph 1016.9mb 11f
9:50am 6 9 mph 1016.6mb 9f
9:40am 7 11 mph 1016.6mb 7f
9:30am 6 7 mph 1016.6mb 7f
9:20am 3 5 mph 1016.3mb 9f
9:10am 3 5 mph 1016.3mb 9f
9:01am 3 8 mph 1015.9mb 10f
9:00am 3
mph
1015.9mb 10f
8:50am 2 6 mph 1015.9mb 7f
8:40am 5 7 mph 1015.9mb 4f
8:30am 6 8 mph 1015.6mb 3f
8:20am 7 8 mph 1015.6mb 2f
8:10am 7 8 mph 1015.6mb 1f
8:01am 6 8 mph 1015.6mb 1f
8:00am 6 8 mph 1015.6mb 1f
7:50am 6 7 mph 1015.2mb -
7:40am 6 7 mph 1015.2mb -1f
7:30am 3 5 mph 1015.2mb -2f
7:20am 3
mph
1015.2mb -
7:10am 2 3 mph 1014.9mb -
7:00am 3 7 mph 1014.9mb 1f
6:50am 2 3 mph 1014.9mb 2f
6:40am 2 3 mph 1014.6mb 1f
6:30am 3 6 mph 1014.6mb 2f
6:20am 5 6 mph 1014.2mb 1f
6:10am 6 7 mph 1013.9mb 2f
6:00am 6 7 mph 1013.9mb 2f
5:50am 5 7 mph 1013.9mb 3f
5:40am 7 9 mph 1013.9mb 3f
5:30am 7 10 mph 1013.5mb 3f
5:20am 9 13 mph 1013.5mb 3f
5:10am 9 11 mph 1013.5mb 3f
5:00am 8 10 mph 1013.5mb 3f
4:50am 8 9 mph 1013.5mb 4f
4:40am 7 9 mph 1013.2mb 4f
4:30am 7 9 mph 1013.5mb 4f
4:20am 7 9 mph 1013.2mb 4f
4:10am 7 9 mph 1013.2mb 3f
4:00am 6 8 mph 1013.2mb 1f
3:50am 3 5 mph 1013.2mb -
3:42am 2 8 mph 1013.2mb 4f
3:40am 3
mph
1013.2mb 4f
3:30am 3 7 mph 1012.9mb 4f
3:20am 6 8 mph 1012.9mb 5f
3:10am 3 6 mph 1012.5mb 6f
3:00am 5 6 mph 1012.5mb 6f
2:50am 5 7 mph 1012.2mb 5f
2:41am 6 7 mph 1012.2mb 5f
2:40am 6
mph
1012.2mb 5f
2:30am 5 7 mph 1011.9mb 6f
2:20am 3 6 mph 1011.9mb 7f
2:10am 5 6 mph 1011.5mb 7f
2:00am 3 7 mph 1011.5mb 7f
1:50am 5 8 mph 1011.2mb 8f
1:41am 6 8 mph 1011.2mb 8f
1:40am 6 8 mph 1011.2mb 8f
1:30am 5 7 mph 1010.8mb 9f
1:20am 5 7 mph 1010.5mb 9f
1:10am 5 7 mph 1010.5mb 9f
1:00am 3 6 mph 1010.5mb 9f
12:50am 5 8 mph 1010.2mb 10f
12:40am 6 10 mph 1010.2mb 10f
12:30am 6 9 mph 1009.8mb 11f
12:20am 7 9 mph 1009.5mb 11f
12:10am 7 8 mph 1009.5mb 11f
12:00am 3 7 mph 1009.1mb 11f
Sat 01/24 11:50pm 5 10 mph 1008.8mb 12f
11:40pm 9 11 mph 1008.8mb 12f
11:30pm 3 8 mph 1008.5mb 13f
11:20pm 8 13 mph 1008.1mb 13f
11:10pm 10 13 mph 1007.8mb 13f
11:00pm 9 16 mph 1007.5mb 14f
10:50pm 9 14 mph 1007.5mb 14f
10:40pm 9 18 mph 1007.1mb 14f
10:30pm 14 16 mph 1006.8mb 15f
10:20pm 11 15 mph 1007.1mb 15f
10:10pm 11 16 mph 1006.8mb 16f
10:00pm 10 16 mph 1006.4mb 16f
9:50pm 10 18 mph 1006.4mb 17f
9:40pm 11 16 mph 1006.4mb 17f
9:30pm 13 16 mph 1006.4mb 18f
9:27pm 10 17 mph 1006.4mb 18f
9:20pm 7 16 mph 1006.4mb 19f
9:10pm 8 14 mph 1006.4mb 19f
9:00pm 7 14 mph 1006.4mb 19f
8:50pm 10 14 mph 1006.4mb 18f
8:40pm 10 17 mph 1006.1mb 19f
8:30pm 10 18 mph 1006.1mb 19f
8:26pm 11 24 mph 1006.1mb 19f
8:20pm 10 17 mph 1006.1mb 19f
8:10pm 10 20 mph 1006.1mb 19f
8:00pm 13 21 mph 1005.4mb 19f
7:50pm 11 21 mph 1005.8mb 19f
7:40pm 14 22 mph 1005.4mb 20f
7:30pm 17 26 mph 1005.4mb 20f
7:26pm 21 26 mph 1005.4mb 20f
7:20pm 14 22 mph 1005.4mb 21f
7:10pm 13 20 mph 1005.1mb 21f
7:00pm 10 25 mph 1005.1mb 21f
6:50pm 16 22 mph 1004.7mb 21f
6:40pm 17 22 mph 1004.7mb 21f
6:30pm 13 22 mph 1004.7mb 21f
6:26pm 17 24 mph 1004.4mb 22f
6:20pm 16 22 mph 1004.7mb 22f
6:10pm 17 24 mph 1004.1mb 22f
6:00pm 16 23 mph 1004.1mb 22f
5:50pm 14 22 mph 1004.1mb 22f
5:40pm 13 21 mph 1003.7mb 23f
5:30pm 10 20 mph 1003.4mb 23f
5:25pm 14 26 mph 1003.4mb 23f
5:20pm 15 26 mph 1003.4mb 23f
5:10pm 13 22 mph 1003mb 23f
5:00pm 14 20 mph 1002.7mb 23f
4:50pm 16 23 mph 1002.7mb 24f
4:40pm 14 23 mph 1002.4mb 24f
4:30pm 14 22 mph 1002mb 24f
4:25pm 14 23 mph 1002mb 24f
4:20pm 17 23 mph 1002mb 24f
4:10pm 11 20 mph 1001.7mb 25f
4:00pm 15 22 mph 1001.7mb 25f
3:50pm 14 20 mph 1001mb 25f
3:40pm 11 23 mph 1001.4mb 26f
3:30pm 15 23 mph 1001mb 26f
3:24pm 17 28 mph 1000.7mb 26f
3:20pm 16 28 mph 1000.7mb 26f
3:10pm 16 23 mph 1000.7mb 27f
3:00pm 11 23 mph 1000.3mb 28f
2:50pm 11 21 mph 1000.3mb 28f
2:40pm 13 20 mph 1000mb 28f
2:30pm 9 21 mph 1000mb 28f
2:24pm 13 22 mph 999.7mb 29f
2:20pm 13 20 mph 999.7mb 29f
2:10pm 13 17 mph 999.7mb 29f
2:00pm 14 20 mph 999.7mb 29f
1:50pm 14 22 mph 999.3mb 29f
1:40pm 14 21 mph 999.3mb 30f
1:30pm 11 18 mph 999.3mb 30f
1:23pm 13 23 mph 999mb 30f
1:20pm 13 20 mph 999.3mb 30f
1:10pm 15 23 mph 999mb 31f
1:00pm 13 17 mph 999.3mb 31f
12:50pm 10 15 mph 999mb 31f
12:40pm 9 17 mph 999mb 32f
12:30pm 11 21 mph 999.3mb 31f
12:23pm 16 22 mph 999mb 32f
12:20pm 13 20 mph 999mb 32f
12:10pm 15 20 mph 999.3mb 32f
12:00pm 13 22 mph 999.3mb 32f
11:50am 14 22 mph 999.3mb 32f
11:40am 15 20 mph 999.3mb 32f
11:30am 11 21 mph 999.3mb 33f
11:23am 15 21 mph 999.3mb 33f
11:20am 14 20 mph 999.3mb 33f
11:10am 14 21 mph 999.3mb 33f
11:00am 14 18 mph 999.3mb 34f
10:50am 11 15 mph 999.3mb 34f
10:40am 11 17 mph 999.3mb 34f
10:30am 10 16 mph 999.3mb 34f
10:22am 14 21 mph 999.3mb 36f
10:20am 16 21 mph 999.3mb 36f
10:10am 9 13 mph 999mb 36f
10:00am 6 10 mph 999mb 35f
9:50am 6 9 mph 999mb 35f
9:40am 7 11 mph 999mb 34f
9:30am 9 11 mph 999.3mb 35f
9:22am 6 8 mph 999.3mb 35f
9:20am 5 7 mph 999.3mb 35f
9:10am 3 7 mph 999.3mb 35f
9:00am 5 6 mph 999.3mb 34f
8:50am 3 6 mph 999.3mb 34f
8:40am 3 7 mph 999.3mb 33f
8:30am 6 8 mph 999.3mb 33f
8:21am 3 10 mph 999.3mb 33f
8:20am 3 6 mph 999.3mb 33f
8:10am 3 8 mph 999.3mb 33f
8:00am 5 10 mph 999.3mb 33f
7:50am 3 7 mph 999.3mb 32f
7:40am 6 8 mph 999.7mb 32f
7:30am 6 8 mph 999.7mb 32f
7:21am 5 9 mph 999.7mb 32f
7:20am 5 9 mph 999.7mb 32f
7:10am 5 8 mph 999.7mb 32f
7:00am 6 8 mph 999.7mb 32f
6:50am 6 9 mph 999.7mb 32f
6:40am 5 8 mph 999.7mb 32f
6:30am 6 9 mph 999.7mb 32f
6:21am 6 9 mph 999.7mb 32f
6:20am 6 8 mph 999.7mb 32f
6:10am 5 8 mph 999.7mb 32f
6:00am 6 8 mph 999.7mb 32f
5:50am 6 9 mph 999.7mb 32f
5:40am 6 9 mph 999.7mb 31f
5:30am 5 8 mph 999.7mb 31f
5:20am 5 7 mph 999.7mb 31f
5:10am 5 7 mph 999.7mb 31f
5:00am 3 7 mph 999.7mb 31f
4:50am 3 5 mph 999.7mb 31f
4:40am 3 6 mph 999.7mb 31f
4:30am 3 6 mph 1000mb 31f
4:20am 3 8 mph 1000mb 31f
4:10am 5 6 mph 1000mb 31f
4:00am 5 7 mph 1000mb 31f
3:50am 6 8 mph 1000.3mb 31f
3:40am 5 7 mph 1000.3mb 31f
3:30am 5 7 mph 1000.3mb 31f
3:20am 3 6 mph 1000.7mb 31f
3:19am 3 6 mph 1000.7mb 31f
3:10am 3 6 mph 1000.7mb 31f
3:00am 5 6 mph 1000.7mb 31f
2:50am 3 6 mph 1000.7mb 31f
2:40am 3 6 mph 1001mb 31f
2:30am 5
mph
1001mb 31f
2:20am 3 5 mph 1001.4mb 31f
2:19am 3 6 mph 1001.4mb 31f
2:10am 5 6 mph 1001.4mb 31f
2:00am 3 5 mph 1001.7mb 31f
1:50am 3 6 mph 1001.4mb 31f
1:40am 3 6 mph 1001.4mb 31f
1:30am 3 6 mph 1001.7mb 31f
1:20am 3 6 mph 1001.4mb 31f
1:19am 3 7 mph 1001.4mb 31f
1:10am 5 6 mph 1001.4mb 31f
1:00am 3 7 mph 1001.4mb 31f
12:50am 5 6 mph 1001.7mb 31f
12:40am 3 7 mph 1001.7mb 31f
12:30am 3 6 mph 1001.7mb 31f
12:20am 2 5 mph 1002mb 31f
12:18am 2 7 mph 1002mb 31f
12:10am 3 6 mph 1002mb 31f
12:00am 3 6 mph 1002mb 31f